Showing default

AETHER-4, 67375

Orbit data source: Space-Track

AETHER-4, 67375 is a payload satellite owned by Kepler Comms (CA) in SSO that was launched on Sun, 11 Jan 2026 UTC via an FALCON 9 launch vehicle from the Air Force Western Test Range (AFWTR). Payload-class satellites include a variety of spacecraft equipped with specific instruments for various scientific and technological missions. These include communications satellites like Starlink; space stations such as the ISS; scientific satellites like the Hubble; Earth observation satellites from companies like Planet Labs, Umbra, and HawkEye 360; GPS; miniature CubeSats for education and research; and military/defense satellites.

Loading next visibility...
Identifier
67375, 2026-004N
Orbit
SSO
Country
Flag of CACA
Related business
Manufacturer
Kepler Comms
Mission
Operational spacecraft
Bus & Motor
KEPLER GEN2B, Unknown motor
Mass
300 kg wet, 300 kg dry
Launch date (UTC)
2026-01-11 (3 months ago)
Launch vehicle
FALCON 9
Launch site
Air Force Western Test Range (AFWTR)
Object type
Payload
Rocket body
Debris
Shape & HBR
Unknown shape, 7.6 m
Radar Cross Section
RCS unknown

Expand to show TLE details & history
Last TLE update: 14 hours ago

TLE from 14 hours ago
0 AETHER-4
1 67375U 26004N   26094.99887700  .00001257  00000-0  14249-3 0  9997
2 67375  97.8044  94.8232 0005393  22.2665 337.8785 14.88097150 12415
Epoch: 2026-04-04T23:58Z
TLE epoch observation values (Epoch: 2026-04-04T23:58:22.972Z)
Latitude
-0.00003°
Longitude
-98.08312°
Altitude
603.428 km
Speed
7.56 km/s
True Right ascension
06h 19m 17s
True Declination
0° 00' 00"
Sunlit
Object was in daylight at epoch
Visualization orbit readout
Latitude
Unknown
Longitude
Unknown
Altitude
Unknown
Speed
Unknown
Apparent Right ascension
Unknown
Apparent Declination
Unknown
Sunlit
N/A
Visualization observer readout
Local Sidereal Time
19:26:53
Azimuth
Unknown
Elevation
Unknown
Doppler factor
Unknown
Orbital elements
Apogee altitude
604.671 km
Perigee altitude
597.143 km
Semi-major axis
6,979.044 km
Eccentricity
0.00054
Inclination
97.8044°
RAAN
94.8232°
Arg. of periapsis
22.2665°
True anomaly
337.85521°
Mean anomaly
337.8785°
Eccentric anomaly
337.86686°
Mean motion
3.72262 °/min
Orbital period
96.71 mins
BSTAR
0.00014249
Loading maneuver chart data...
Computing Atmospheric mass density...
Loading historical data...
Loading historical data...
Loading historical data...
Loading historical data...
Loading historical data...
Loading historical data...
Loading historical data...

Documentation

Showing up to 5 results
|